sat.trackr.live / text

‹ back to catalog

INTELSAT 32E (IS-32E)

NORAD 41945 · 2017-007B

PAYLOAD ACTIVE UNKNOWN

§ Identity

Operator
Country
ITSO
Launch date
2017-02-14
Launch site
FRGUI
Launch vehicle
Mass (kg)
RCS (m²)
14.74

Purposes: comms

External: N2YO · Heavens-Above · Gunter

§ Orbital elements

Epoch: 2026-09-19T20:11:17.810304Z

Period
1,436.08 min
Inclination
0.0160°
Eccentricity
0.0000585
Mean motion
1.00272981 rev/d
Perigee alt
35,783.8 km
Apogee alt
35,788.7 km
Semi-major
42,164.4 km
B*
0.0000e+0
RAAN
236.8181°
Arg perigee
227.0367°
Mean anomaly
154.5532°
Rev number
3,517

§ Raw data

INTELSAT 32E (IS-32E)1 41945U 17007B   26262.84117836 -.00000273  00000+0  00000+0 0  99952 41945   0.0160 236.8181 0000585 227.0367 154.5532  1.00272981 35177

JSON: /api/v1/satellites/41945 · /tle

For live sub-satellite position, see the globe view (requires WebGL).

§ Visibility from observer

Set your observer location to see the next 7 days of passes ≥ 10°. The values pass through the URL so the page stays shareable.

No JS? Fill the form by hand. The geolocation button needs JavaScript.